Change the Weather History Date:

Tuesday, June 17, 2014

  Actual Average Record
Temperature  
Mean Temperature 79 °F 84 °F  
Max Temperature 83 °F 88 °F 93 °F (1981)
Min Temperature 75 °F 79 °F 71 °F (1908)
Degree Days  
Heating Degree Days 0 0  
Month to date heating degree days 0 0  
Since 1 June heating degree days 0 0  
Since 1 July heating degree days 22 73  
Cooling Degree Days 14 18  
Month to date cooling degree days 305 303  
Year to date cooling degree days 1927 1733  
Since 1 June cooling degree days 305 303  
Growing Degree Days 28 (Base 50)    
Moisture  
Dew Point 72 °F    
Average Humidity 72    
Maximum Humidity 79    
Minimum Humidity 65    
Precipitation  
Precipitation 0.23 in 0.13 in 1.85 in (1908)
Month to date precipitation 1.49 2.35  
Year to date precipitation 14.34 12.98  
Snow  
Snow 0.00 in - - ()
Month to date snowfall 0.0  
Since 1 June snowfall 0.0  
Since 1 July snowfall 0.0  
Snow Depth 0.00 in    
Sea Level Pressure  
Sea Level Pressure 30.08 in    
Wind  
Wind Speed 9 mph (ENE)    
Max Wind Speed 21 mph    
Max Gust Speed 28 mph    
Visibility 10 miles    
Events Rain , Thunderstorm    
T = Trace of Precipitation, MM = Missing Value Source: NWS Daily Summary

Daily Weather History Graph

Daily Weather History Graph

Search for Another Location

Airport or City:

Trip Planner

Search our weather history database for the weather conditions in past years. The results will help you decide how hot, cold, wet, or windy it might be!

Date:

Astronomy

Jun. 17, 2014 Rise Set
Actual Time 6:38 AM EDT 8:17 PM EDT
Civil Twilight 6:12 AM EDT 8:43 PM EDT
Nautical Twilight 5:41 AM EDT 9:14 PM EDT
Astronomical Twilight 5:09 AM EDT 9:46 PM EDT
Moon No Moon Rise 11:23 AM EDT (6/17)
Length of Visible Light 14h 30m
Length of Day
13h 39m
Waning Gibbous, 73% of the Moon is Illuminated
Jun 17
Waning Gibbous
Jun 19
Last Quarter
Jun 27
New
Jul 5
First Quarter
Jul 12
Full

Hourly Weather History & Observations

Time (EDT) Temp. Heat Index Dew Point Humidity Pressure Visibility Wind Dir Wind Speed Gust Speed Precip Events Conditions
12:53 AM 82.0 °F 87.9 °F 73.9 °F 76% 30.09 in 10.0 mi East 11.5 mph - N/A   Clear
1:53 AM 82.0 °F 87.9 °F 73.9 °F 76% 30.07 in 10.0 mi ESE 12.7 mph - N/A   Partly Cloudy
2:53 AM 82.0 °F 87.9 °F 73.9 °F 76% 30.06 in 10.0 mi ESE 10.4 mph - N/A   Partly Cloudy
3:53 AM 82.0 °F 87.9 °F 73.9 °F 76% 30.04 in 10.0 mi ESE 11.5 mph - N/A   Partly Cloudy
4:53 AM 82.0 °F 87.4 °F 73.0 °F 74% 30.05 in 10.0 mi SE 8.1 mph - N/A   Scattered Clouds
5:44 AM 82.0 °F 87.9 °F 73.9 °F 76% 30.05 in 10.0 mi SE 5.8 mph - N/A Thunderstorm Partly Cloudy
5:53 AM 82.0 °F 87.9 °F 73.9 °F 76% 30.05 in 10.0 mi ESE 6.9 mph - N/A Thunderstorm Partly Cloudy
6:01 AM 82.0 °F 87.9 °F 73.9 °F 76% 30.05 in 10.0 mi ESE 5.8 mph - N/A Thunderstorm Thunderstorm
6:53 AM 75.9 °F - 69.1 °F 79% 30.07 in 10.0 mi NNE 10.4 mph - 0.00 in Rain , Thunderstorm Light Thunderstorms and Rain
7:19 AM 75.0 °F - 70.0 °F 84% 30.07 in 10.0 mi NNE 5.8 mph - 0.02 in Rain , Thunderstorm Light Rain
7:36 AM 75.9 °F - 70.0 °F 82% 30.08 in 10.0 mi NNE 4.6 mph - 0.02 in   Mostly Cloudy
7:46 AM 75.9 °F - 71.1 °F 85% 30.09 in 10.0 mi NNE 6.9 mph - 0.02 in Thunderstorm Mostly Cloudy
7:53 AM 77.0 °F - 71.1 °F 82% 30.09 in 10.0 mi NNE 6.9 mph - 0.02 in Thunderstorm Mostly Cloudy
8:01 AM 77.0 °F - 72.0 °F 84% 30.09 in 10.0 mi North 9.2 mph - N/A   Scattered Clouds
8:31 AM 78.1 °F - 72.0 °F 81% 30.10 in 10.0 mi North 4.6 mph - 0.00 in Rain , Thunderstorm Light Rain
8:42 AM 78.1 °F - 73.0 °F 84% 30.10 in 10.0 mi Calm Calm - 0.00 in Rain , Thunderstorm Light Thunderstorms and Rain
8:51 AM 78.8 °F - 73.4 °F 83% 30.11 in 10.0 mi Calm Calm - 0.00 in Rain , Thunderstorm Light Thunderstorms and Rain
8:53 AM 78.1 °F - 73.0 °F 84% 30.11 in 10.0 mi Calm Calm - 0.00 in Rain , Thunderstorm Light Thunderstorms and Rain
9:00 AM 78.1 °F - 73.0 °F 84% 30.11 in 8.0 mi Calm Calm - 0.01 in Rain , Thunderstorm Thunderstorms and Rain
9:13 AM 78.1 °F - 73.9 °F 87% 30.11 in 4.0 mi Calm Calm - 0.05 in Rain , Thunderstorm Heavy Rain
9:53 AM 78.1 °F - 75.0 °F 90% 30.12 in 10.0 mi East 3.5 mph - 0.09 in Rain , Thunderstorm Light Rain
10:09 AM 78.1 °F - 73.9 °F 87% 30.12 in 10.0 mi ESE 12.7 mph 16.1 mph 0.00 in   Mostly Cloudy
10:25 AM 78.1 °F - 73.0 °F 84% 30.11 in 10.0 mi East 12.7 mph - 0.00 in   Mostly Cloudy
10:50 AM 78.8 °F - 73.4 °F 83% 30.12 in 10.0 mi East 9.2 mph - 0.00 in Rain , Thunderstorm Light Rain
10:53 AM 77.0 °F - 73.0 °F 88% 30.12 in 10.0 mi East 9.2 mph - 0.00 in Thunderstorm Mostly Cloudy
11:05 AM 78.1 °F - 73.0 °F 84% 30.13 in 10.0 mi East 11.5 mph - 0.00 in Rain Light Rain
11:53 AM 77.0 °F - 71.1 °F 82% 30.12 in 10.0 mi East 13.8 mph - 0.00 in Rain Light Rain
12:53 PM 79.0 °F - 71.1 °F 77% 30.12 in 10.0 mi ENE 4.6 mph - 0.00 in   Clear
1:53 PM 78.1 °F - 71.1 °F 79% 30.12 in 10.0 mi NE 8.1 mph - 0.00 in Rain Light Rain
2:53 PM 78.8 °F - 71.6 °F 78% 30.08 in 10.0 mi ENE 9.2 mph - N/A   Mostly Cloudy
3:53 PM 80.1 °F 83.2 °F 70.0 °F 71% 30.04 in 10.0 mi NNE 9.2 mph - N/A   Clear
4:53 PM 80.1 °F 83.6 °F 71.1 °F 74% 30.05 in 10.0 mi NE 10.4 mph - N/A   Clear
5:53 PM 82.0 °F 85.9 °F 70.0 °F 67% 30.07 in 10.0 mi ENE 8.1 mph - N/A   Clear
6:53 PM 82.0 °F 85.9 °F 70.0 °F 67% 30.07 in 10.0 mi East 13.8 mph - N/A   Clear
7:53 PM 80.1 °F 83.8 °F 72.0 °F 76% 30.06 in 10.0 mi ENE 8.1 mph - N/A   Clear
8:53 PM 80.1 °F 83.8 °F 72.0 °F 76% 30.05 in 10.0 mi East 6.9 mph - N/A   Partly Cloudy
9:53 PM 80.1 °F 84.2 °F 73.0 °F 79% 30.06 in 10.0 mi ENE 15.0 mph 23.0 mph N/A   Scattered Clouds
10:53 PM 80.1 °F 84.2 °F 73.0 °F 79% 30.06 in 10.0 mi East 10.4 mph 18.4 mph 0.00 in   Partly Cloudy
11:53 PM 80.1 °F 83.8 °F 72.0 °F 76% 30.07 in 10.0 mi ESE 11.5 mph - N/A   Partly Cloudy